Regional Weather Roundup
Issued by NWS

Home | Current Version | Previous Version | Text Only | Print | Product List | Glossary On
Versions: 1 2 3 4 5 6 7 8 9 10 11 12 13 14 15 16 17 18 19 20 21 22 23 24 25 26 27 28 29 30 31 32 33 34 35 36 37 38 39 40 41 42 43 44 45 46 47 48 49 50
000
ASUS43 KDMX 272101
RWRIA

WEATHER ROUNDUP FOR IOWA
NATIONAL WEATHER SERVICE DES MOINES IA
300 PM CST MON FEB 27 2017

NOTE: "FAIR" INDICATES FEW OR NO CLOUDS BELOW 12,000 FEET WITH NO
SIGNIFICANT WEATHER AND/OR OBSTRUCTIONS TO VISIBILITY.

* - THESE STATIONS ARE NOT NWS STATIONS...THUS NOT UNDER NWS
QUALITY CONTROL.  THEY ALSO DO NOT REPORT WEATHER SUCH
AS PRECIPITATION OR FOG.

IAZ001>003-012>014-020>022-031>034-043>046-272200-
   NORTHWEST IOWA

CITY           SKY/WX    TMP DP  RH WIND       PRES   REMARKS
CARROLL *      CLOUDY    45  39  81 SE8       29.86F
CHEROKEE *     CLOUDY    40  31  70 SE7       29.85F
DENISON *      CLOUDY    46  32  57 SE10      29.82F
LE MARS *      PTSUNNY   43  27  52 S10G17    29.82F
SHELDON *      MOSUNNY   41  30  65 S17       29.81F
SIOUX CITY     SUNNY     43  31  62 SE12      29.81F
SPENCER        PTSUNNY   38  28  67 S14       29.85F WCI  30
STORM LAKE *   CLOUDY    37  32  81 SE13      29.85F WCI  29
$$

IAZ055>058-069>071-079>083-090>094-272200-
   SOUTHWEST IOWA

CITY           SKY/WX    TMP DP  RH WIND       PRES   REMARKS
ATLANTIC *     CLOUDY    54  27  35 SE15G22   29.85F
AUDUBON *      CLOUDY    50  28  43 S12       29.87F
CLARINDA *     CLOUDY    55  19  24 S15G28    29.87F
COUNCIL BLFS * CLOUDY    54  25  32 S26G33    29.81F
CRESTON *      CLOUDY    54  23  30 SE17G24   29.89F
HARLAN  *      CLOUDY    50  27  40 S17G26    29.87F
LAMONI         CLOUDY    54  20  26 SE15G23   29.89F
RED OAK *      CLOUDY    55  30  38 SE15      29.84F
SHENANDOAH *   CLOUDY    55  21  26 SE18G24   29.83F
$$

IAZ047>049-059>061-072>074-084-272200-
   CENTRAL IOWA

CITY           SKY/WX    TMP DP  RH WIND       PRES   REMARKS
AMES           CLOUDY    52  32  46 SE8       29.91F
ANKENY *       CLOUDY    54  27  35 S14       29.92F
BOONE *        CLOUDY    48  34  57 SE9       29.89F
CHARITON *     CLOUDY    55  23  28 SE16      29.91F
DES MOINES     CLOUDY    56  26  31 SE16      29.91F
GRINNELL*      SUNNY     53  30  41 S13       29.97S
KNOXVILLE *    PTSUNNY   55  25  30 S12       29.91F
MARSHALLTOWN   SUNNY     52  33  48 S14       29.94F
NEWTON *       CLOUDY    54  28  37 S13       29.93F
PELLA *        CLOUDY    55  25  31 S9        29.95F
PERRY *          N/A     50  31  49 SE14      29.89F
$$

IAZ004>006-015-016-023>025-035-036-272200-
   NORTH CENTRAL IOWA

CITY           SKY/WX    TMP DP  RH WIND       PRES   REMARKS
ALGONA *       CLOUDY    39  28  65 S15       29.88F WCI  31
CLARION *      CLOUDY    39  36  87 SE8       29.92F WCI  34
ESTHERVILLE    PTSUNNY   36  30  79 S12       29.86F WCI  28
FORT DODGE *   CLOUDY    45  28  53 SE8       29.90F
MASON CITY     CLOUDY    37  30  75 SE12      29.94F WCI  29
FOREST CITY *    N/A     37  32  81 SE12      29.91F WCI  30
WEBSTER CITY * CLOUDY    41  32  70 S10       29.89F
IOWA FALLS *     N/A     49  36  61 S14       29.94F
$$

IAZ007>011-017>019-026>030-037>042-050>054-066-272200-
   NORTHEAST IOWA

CITY           SKY/WX    TMP DP  RH WIND       PRES   REMARKS
CEDAR RAPIDS   CLOUDY    53  29  39 S13       29.97F
CHARLES CITY * SUNNY     41  34  75 S9        29.95F
CLINTON *      SUNNY     54  33  45 S14G20    30.02F
DECORAH *      SUNNY     45  32  61 S9        29.96F
DUBUQUE        SUNNY     49  30  48 S15       29.99F
MONTICELLO *   SUNNY     52  34  50 S13       29.98F
OELWEIN *      SUNNY     50  34  53 S10G16    29.97F
WATERLOO       SUNNY     51  27  39 S14       29.96F
$$

IAZ064-065-067-068-078-272200-
   EAST CENTRAL IOWA

CITY           SKY/WX    TMP DP  RH WIND       PRES   REMARKS
DAVENPORT      SUNNY     53  32  44 S14       30.02F
IOWA CITY      CLOUDY    55  28  35 S10G20    29.99F
MUSCATINE *    SUNNY     55  32  41 S12G17    30.00F
QUAD CITIES    MOSUNNY   55  31  39 VRB7G20   30.01F
$$

IAZ062-063-075>077-085>089-095>099-272200-
   SOUTHEAST IOWA

CITY           SKY/WX    TMP DP  RH WIND       PRES   REMARKS
BURLINGTON     MOSUNNY   57  29  34 S13G20    29.98F
FAIRFIELD *    SUNNY     55  21  26 S13       29.97S
FORT MADISON * MOSUNNY   59  30  33 S12G17    29.99F
KEOKUK *       PTSUNNY   57  27  30 S7G15     29.98F
CENTERVILLE *    N/A     55  18  22 SE8       29.94F
OTTUMWA        CLOUDY    57  23  26 SE10      29.96F
WASHINGTON *   CLOUDY    57  28  33 S10       29.98F
$$

ABBREVIATIONS USED IN REMARKS
   TC - TEMPERATURES IN CELSIUS
  WCI - WIND CHILL INDEX
   HX - HEAT INDEX
  VSB - VISIBILITY
$$




USA.gov is the U.S. government's official web portal to all federal, state and local government web resources and services.